Previsão horária em Kabanovka

Hoje, 21 Junho, Segunda-feira

Tempo Temperatura Precipitação Vento Pressão Humidade
00:00 +19°C° 0 mm 3 m/s 746 mmHg 87%
01:00 +18°C° 0 mm 3 m/s 746 mmHg 87%
02:00 +18°C° 0 mm 3 m/s 746 mmHg 87%
03:00 +18°C° 0 mm 3 m/s 746 mmHg 87%
04:00 +18°C° 0 mm 3 m/s 746 mmHg 86%
05:00 +19°C° 0 mm 4 m/s 746 mmHg 86%
06:00 +20°C° 0 mm 4 m/s 746 mmHg 81%
07:00 +22°C° 0 mm 5 m/s 746 mmHg 75%
08:00 +23°C° 0 mm 5 m/s 746 mmHg 70%
09:00 +25°C° 0 mm 5 m/s 746 mmHg 67%
10:00 +27°C° 0 mm 5 m/s 746 mmHg 64%
11:00 +28°C° 0 mm 4 m/s 746 mmHg 61%
12:00 +28°C° 0 mm 5 m/s 746 mmHg 60%
13:00 +29°C° 0 mm 5 m/s 746 mmHg 60%
14:00 +29°C° 0 mm 5 m/s 746 mmHg 59%
15:00 +29°C° 0 mm 5 m/s 746 mmHg 63%
16:00 +28°C° 0 mm 4 m/s 746 mmHg 66%
17:00 +28°C° 0 mm 4 m/s 746 mmHg 70%
18:00 +26°C° 0 mm 4 m/s 746 mmHg 75%
19:00 +25°C° 0 mm 4 m/s 746 mmHg 81%
20:00 +22°C° 0 mm 3 m/s 746 mmHg 86%
21:00 +21°C° 0 mm 3 m/s 746 mmHg 88%
22:00 +20°C° 0 mm 3 m/s 746 mmHg 90%
23:00 +19°C° 0 mm 3 m/s 746 mmHg 91%

Amanhã, 22 Junho, Terça-feira

Tempo Temperatura Precipitação Vento Pressão Humidade
00:00 +19°C° 0 mm 3 m/s 746 mmHg 91%
01:00 +19°C° 0 mm 3 m/s 746 mmHg 91%
02:00 +18°C° 0 mm 3 m/s 746 mmHg 91%
03:00 +19°C° 0 mm 3 m/s 746 mmHg 90%
04:00 +19°C° 0 mm 3 m/s 746 mmHg 89%
05:00 +19°C° 0 mm 3 m/s 746 mmHg 88%
06:00 +21°C° 0 mm 4 m/s 746 mmHg 82%
07:00 +23°C° 0 mm 5 m/s 746 mmHg 76%
08:00 +26°C° 0 mm 5 m/s 746 mmHg 70%
09:00 +27°C° 0 mm 5 m/s 746 mmHg 67%
10:00 +28°C° 0 mm 5 m/s 747 mmHg 63%
11:00 +29°C° 0 mm 6 m/s 747 mmHg 60%
12:00 +30°C° 0 mm 5 m/s 747 mmHg 60%
13:00 +30°C° 0 mm 5 m/s 747 mmHg 59%
14:00 +30°C° 0 mm 5 m/s 746 mmHg 59%
15:00 +30°C° 0 mm 4 m/s 746 mmHg 63%
16:00 +30°C° 0 mm 4 m/s 746 mmHg 66%
17:00 +29°C° 0 mm 4 m/s 746 mmHg 70%
18:00 +28°C° 0 mm 4 m/s 746 mmHg 76%
19:00 +26°C° 0 mm 3 m/s 746 mmHg 81%
20:00 +25°C° 0 mm 3 m/s 746 mmHg 86%
21:00 +24°C° 0 mm 3 m/s 746 mmHg 88%
22:00 +22°C° 0 mm 3 m/s 746 mmHg 89%
23:00 +22°C° 0 mm 3 m/s 746 mmHg 90%

Depois de amanhã, 23 Junho, Quarta-feira

Tempo Temperatura Precipitação Vento Pressão Humidade
00:00 +21°C° 0 mm 3 m/s 746 mmHg 90%
01:00 +21°C° 0 mm 3 m/s 747 mmHg 89%
02:00 +20°C° 0 mm 3 m/s 747 mmHg 88%
03:00 +20°C° 0 mm 3 m/s 747 mmHg 88%
04:00 +21°C° 0 mm 3 m/s 747 mmHg 87%
05:00 +21°C° 0 mm 3 m/s 747 mmHg 86%
06:00 +22°C° 0 mm 3 m/s 747 mmHg 81%
07:00 +25°C° 0 mm 4 m/s 747 mmHg 75%
08:00 +27°C° 0 mm 4 m/s 747 mmHg 70%
09:00 +28°C° 0 mm 5 m/s 747 mmHg 65%
10:00 +29°C° 0 mm 5 m/s 747 mmHg 61%
11:00 +30°C° 0 mm 5 m/s 747 mmHg 56%
12:00 +32°C° 0 mm 5 m/s 747 mmHg 56%
13:00 +32°C° 0 mm 5 m/s 747 mmHg 56%
14:00 +32°C° 0 mm 5 m/s 747 mmHg 57%
15:00 +32°C° 0 mm 4 m/s 747 mmHg 61%
16:00 +32°C° 0 mm 4 m/s 747 mmHg 64%
17:00 +30°C° 0 mm 3 m/s 747 mmHg 68%
18:00 +29°C° 0 mm 3 m/s 747 mmHg 74%
19:00 +27°C° 0 mm 3 m/s 747 mmHg 79%
20:00 +26°C° 0 mm 3 m/s 747 mmHg 84%
21:00 +25°C° 0 mm 3 m/s 747 mmHg 86%
22:00 +24°C° 0 mm 3 m/s 747 mmHg 87%
23:00 +23°C° 0 mm 2 m/s 747 mmHg 89%

24 Junho, Quinta-feira

Tempo Temperatura Precipitação Vento Pressão Humidade
00:00 +23°C° 0 mm 2 m/s 747 mmHg 89%
01:00 +23°C° 0 mm 2 m/s 747 mmHg 89%
02:00 +21°C° 0 mm 2 m/s 747 mmHg 89%
03:00 +23°C° 0 mm 2 m/s 747 mmHg 89%
04:00 +23°C° 0 mm 2 m/s 747 mmHg 88%
05:00 +23°C° 0 mm 2 m/s 747 mmHg 87%
06:00 +25°C° 0 mm 2 m/s 747 mmHg 82%
07:00 +27°C° 0 mm 3 m/s 747 mmHg 76%
08:00 +28°C° 0 mm 3 m/s 747 mmHg 71%
09:00 +29°C° 0 mm 3 m/s 747 mmHg 66%
10:00 +31°C° 0 mm 3 m/s 747 mmHg 61%
11:00 +33°C° 0 mm 3 m/s 747 mmHg 57%
12:00 +33°C° 0 mm 3 m/s 747 mmHg 55%
13:00 +33°C° 0 mm 3 m/s 747 mmHg 52%
14:00 +34°C° 0 mm 3 m/s 747 mmHg 50%
15:00 +32°C° 0 mm 2 m/s 747 mmHg 55%
16:00 +32°C° 0 mm 2 m/s 747 mmHg 60%
17:00 +31°C° 0 mm 2 m/s 746 mmHg 64%
18:00 +30°C° 0 mm 2 m/s 746 mmHg 68%
19:00 +28°C° 0 mm 2 m/s 746 mmHg 72%
20:00 +26°C° 0 mm 2 m/s 746 mmHg 76%
21:00 +25°C° 0 mm 2 m/s 746 mmHg 77%
22:00 +25°C° 0 mm 2 m/s 746 mmHg 78%
23:00 +24°C° 0 mm 2 m/s 746 mmHg 78%

25 Junho, Sexta-feira

Tempo Temperatura Precipitação Vento Pressão Humidade
00:00 +23°C° 0 mm 1 m/s 746 mmHg 79%
01:00 +23°C° 0 mm 1 m/s 746 mmHg 80%
02:00 +21°C° 0 mm 0 m/s 746 mmHg 80%
03:00 +21°C° 0 mm 0 m/s 746 mmHg 80%
04:00 +24°C° 0 mm 1 m/s 746 mmHg 79%
05:00 +24°C° 0 mm 1 m/s 746 mmHg 78%
06:00 +26°C° 0 mm 1 m/s 745 mmHg 74%
07:00 +27°C° 0 mm 1 m/s 745 mmHg 69%
08:00 +29°C° 0 mm 1 m/s 745 mmHg 65%
09:00 +30°C° 0 mm 2 m/s 745 mmHg 62%
10:00 +31°C° 0 mm 2 m/s 745 mmHg 58%
11:00 +32°C° 0 mm 2 m/s 745 mmHg 55%
12:00 +32°C° 0 mm 1 m/s 745 mmHg 53%
13:00 +32°C° 0 mm 1 m/s 745 mmHg 51%
14:00 +33°C° 0 mm 1 m/s 745 mmHg 49%
15:00 +33°C° 0 mm 1 m/s 744 mmHg 52%
16:00 +32°C° 0 mm 1 m/s 744 mmHg 55%
17:00 +32°C° 0 mm 1 m/s 743 mmHg 57%
18:00 +31°C° 0 mm 1 m/s 743 mmHg 61%
19:00 +29°C° 0 mm 1 m/s 743 mmHg 65%
20:00 +27°C° 0 mm 1 m/s 743 mmHg 68%
21:00 +26°C° 0.8 mm 2 m/s 743 mmHg 74%
22:00 +24°C° 0.8 mm 2 m/s 743 mmHg 81%
23:00 +22°C° 0.8 mm 3 m/s 742 mmHg 87%

26 Junho, Sábado

Tempo Temperatura Precipitação Vento Pressão Humidade
00:00 +22°C° 0.3 mm 3 m/s 742 mmHg 86%
01:00 +21°C° 0.3 mm 3 m/s 742 mmHg 86%
02:00 +21°C° 0.3 mm 2 m/s 742 mmHg 86%
03:00 +21°C° 0.3 mm 2 m/s 742 mmHg 86%
04:00 +23°C° 0.3 mm 1 m/s 742 mmHg 86%
05:00 +23°C° 0.3 mm 1 m/s 742 mmHg 86%
06:00 +25°C° 0 mm 1 m/s 742 mmHg 82%
07:00 +26°C° 0 mm 1 m/s 742 mmHg 77%
08:00 +28°C° 0 mm 2 m/s 741 mmHg 72%
09:00 +29°C° 0 mm 2 m/s 741 mmHg 67%
10:00 +30°C° 0 mm 2 m/s 741 mmHg 63%
11:00 +31°C° 0 mm 3 m/s 741 mmHg 58%
12:00 +31°C° 0 mm 3 m/s 741 mmHg 56%
13:00 +33°C° 0 mm 3 m/s 741 mmHg 54%
14:00 +33°C° 0 mm 3 m/s 741 mmHg 52%
15:00 +31°C° 0.1 mm 3 m/s 740 mmHg 57%
16:00 +31°C° 0.1 mm 3 m/s 740 mmHg 63%
17:00 +30°C° 0.1 mm 3 m/s 739 mmHg 68%
18:00 +28°C° 0.3 mm 3 m/s 739 mmHg 73%
19:00 +26°C° 0.3 mm 3 m/s 739 mmHg 78%
20:00 +25°C° 0.3 mm 3 m/s 739 mmHg 82%
21:00 +24°C° 0.1 mm 3 m/s 739 mmHg 84%
22:00 +22°C° 0.1 mm 3 m/s 739 mmHg 86%
23:00 +22°C° 0.1 mm 3 m/s 738 mmHg 88%
Mostrar mais

Necessitamos do seu Consentimento

A Meteoprog e os seus Fornecedores de Serviços podem armazenar e aceder a dados pessoais como cookies, identificadores do dispositivo ou outras tecnologias semelhantes existentes no seu dispositivo e processar estes dados para personalizar conteúdos e anúncios, assim como funcionalidades nas redes sociais e análise de tráfego.

  • Armazenar e/ou aceder a informações no seu dispositivo

    Os cookies, identificadores do dispositivo ou outras informações podem ser armazenados ou acedidos no seu dispositivo, para os fins acima indicados.

  • Anúncios e conteúdos personalizados, medição de anúncios e conteúdos, dados sobre o público-alvo e desenvolvimento de produtos

    Os anúncios e os conteúdos podem ser personalizados com base num perfil. Podem ser adicionados dados adicionais para uma maior personalização dos anúncios e dos conteúdos. A eficácia dos anúncios e dos conteúdos pode ser medida. Podem ser obtidas informações sobre o público que visualizou os anúncios e os conteúdos. Estes dados podem ser usados para desenvolver ou melhorar sistemas, softwares ou a experiência do utilizador.

Ao clicar em "Eu concordo”, permitirá o uso de cookies, identificadores do dispositivo e web beacons mencionados ou outras tecnologias semelhantes. As configurações do navegador do seu dispositivo podem ser alteradas.

Para certos fins, podem ser invocados interesses legítimos ao invés de consentimento. Pode ler mais informação sobre este assunto na nossa Política de Privacidade e Cookies.